Regional Weather Roundup
Issued by NWS

Home | Current Version | Previous Version | Text Only | Print | Product List | Glossary On
Versions: 1 2 3 4 5 6 7 8 9 10 11 12 13 14 15 16 17 18 19 20 21 22 23 24 25 26 27 28
000
ASCA42 TJSJ 091810
RWRPR
PUERTO RICO/U.S. VIRGIN ISLANDS HOURLY WEATHER ROUNDUP
NATIONAL WEATHER SERVICE SAN JUAN PR
200 PM AST FRI DEC 09 2016

PRZ001>002-007>008-010-091900-
PUERTO RICO

CITY           SKY/WX    TMP DP  RH WIND       PRES   REMARKS
SAN JUAN LMM   PTSUNNY   86  73  66 NE13      30.00F HX  93
CEIBA          SUNNY     84  73  70 NE8G21    30.02F HX  91
$$

VIZ001>002-091900-
U.S. VIRGIN ISLANDS

CITY           SKY/WX    TMP DP  RH WIND       PRES   REMARKS
CHARLOTTE AMA  MOSUNNY   86  75  70 E10       29.99F HX  95
CHRISTIANSTED  MOSUNNY   84  75  74 NE10      29.99F HX  92
$$

HOURLY WEATHER ROUNDUP FOR THE NEWS MEDIA

CITY           SKY/WX    TMP DP  RH WIND       PRES   REMARKS
ORLANDO        PTSUNNY   58  43  57 N14       30.30F
NEW YORK       PTSUNNY   42  15  33 W24G31    30.10F
NEWARK         MOSUNNY   39  13  34 NW18G36   30.11F WCI  30
CHICAGO        FLURRIES  25  14  63 NW12      30.51F WCI  14
HARTFORD       SUNNY     38  13  35 NW12G26   29.95S WCI  30
BOSTON         MOSUNNY   36  12  37 W18G25    29.95S WCI  26
DALLAS         CLOUDY    36  13  38 CALM      30.63F
PHILADELPHIA   PTSUNNY   38  18  44 W20       30.21F WCI  28
LOS ANGELES    PTSUNNY   59  50  72 SE6       30.28R
WASHINGTON DC  MOSUNNY   37  16  42 NW20G29   30.32F WCI  27



USA.gov is the U.S. government's official web portal to all federal, state and local government web resources and services.